Track STARLINK 1030 now! 10-day predictions STARLINK 1030 is classified as:
1 44735U 19074Y 22140.24405952 .00000010 00000-0 19581-4 0 9993 2 44735 53.0551 324.0781 0001973 73.6403 286.4803 15.06393213139043